CAPE
0 0 0 0 0 0 0 0 0 0 0 0 0 0 0 0 0 0 0 0 0 0 0 0 0 0 0 0 0 0 0 0 0 0 0 0 0 0 0 0 0 0 0 0
0 0 0 0 0 0 0 0 0 0 0 0 0 0 0 0 0 0 0 0 0 0 0 0 0 0 0 0 0 0 0 0 0 0 0 0 0 0 0 0 0 0 0 0
0 0 0 0 0 0 0 0 0 0 0 0 0 0 0 0 0 0 0 0 0 0 0 0 0 0 0 0 0 0 0 0 0 0 0 0 0 0 0 0 0 0 0 0
0 0 0 0 0 0 0 0 0 0 0 0 0 0 0 0 0 0 0 0 0 0 0 0 0 0 0 0 0 0 0 0 0 0 0 0 0 0 0 0 0 0 0 0
0 0 0 0 0 0 0 0 0 0 0 0 0 0 0 0 0 0 0 0 0 0 0 0 0 0 0 0 0 0 0 0 0 0 0 0 0 0 0 0 0 0 0 0
0 0 0 0 0 0 0 0 0 0 0 0 0 0 0 0 0 0 0 0 0 0 0 0 0 0 0 0 0 0 0 0 0 0 0 0 0 0 0 0 0 0 0 0
0 0 0 0 0 0 0 0 0 0 0 0 0 0 0 0 0 0 0 0 0 0 0 0 0 0 0 0 0 0 0 0 0 0 0 0 0 0 0 0 0 0 0 0
0 0 0 0 0 0 0 0 0 0 0 0 0 0 0 0 0 0 0 0 0 0 0 0 0 0 0 0 0 0 0 0 0 0 0 0 0 0 0 0 0 0 0 0
0 0 0 0 0 0 0 0 0 0 0 0 0 0 0 0 0 0 0 0 0 0 0 0 0 0 0 0 0 0 0 0 0 0 0 0 0 0 0 0 0 0 0 0
0 0 0 0 0 0 0 0 0 0 0 0 0 0 0 0 0 0 0 0 0 0 0 0 0 0 0 0 0 0 0 0 0 0 0 0 0 0 0 0 0 0 0 0
0 0 0 0 0 0 0 0 0 0 0 0 0 0 0 0 0 0 0 0 0 0 0 0 0 0 0 0 0 0 0 0 0 0 0 0 0 0 0 0 0 0 0 0
0 0 0 0 0 0 0 0 0 0 0 0 0 0 0 0 0 0 0 0 0 0 0 0 0 0 0 0 0 0 0 0 0 0 0 0 0 0 0 0 0 0 0 0
0 0 0 0 0 0 0 0 0 0 0 0 0 0 0 0 0 0 0 0 0 0 0 0 0 0 0 0 0 0 0 0 0 0 0 0 0 0 0 0 0 0 0 0
0 0 0 0 0 0 0 0 0 0 0 0 0 0 0 0 0 0 0 0 0 0 0 0 0 0 0 0 0 0 0 0 0 0 0 0 0 0 0 0 0 0 0 0
0 0 0 0 0 0 0 0 0 0 0 0 0 0 0 0 0 0 0 0 0 0 0 0 0 0 0 0 0 0 0 0 0 0 0 0 0 0 0 0 0 0 0 0
0 0 0 0 0 0 0 0 0 0 0 0 0 0 0 0 0 0 0 0 0 0 0 0 0 0 0 0 0 0 0 0 0 0 0 0 0 0 0 0 0 0 0 0
0 0 0 0 0 0 0 0 0 0 0 0 0 0 0 0 0 0 0 0 0 0 0 0 0 0 0 0 0 0 0 0 0 0 0 0 0 0 0 0 0 0 0 0
0 0 0 0 0 0 0 0 0 0 0 0 0 0 0 0 0 0 0 0 0 0 0 0 0 0 0 0 0 0 0 0 0 0 0 0 0 0 0 0 0 0 0 0
0 0 0 0 0 0 0 0 0 0 0 0 0 0 0 0 0 0 0 0 0 0 0 0 0 0 0 0 0 0 0 0 0 0 0 0 0 0 0 0 0 0 0 0
0 0 0 0 0 0 0 0 0 0 0 0 0 0 0 0 0 0 0 0 0 0 0 0 0 0 0 0 0 0 0 0 0 0 0 0 0 0 0 0 0 0 0 0
0 0 0 0 0 0 0 0 0 0 0 0 0 0 0 0 0 0 0 0 0 0 0 0 0 0 0 0 0 0 0 0 0 0 0 0 0 0 0 0 0 0 0 0
0 0 0 0 0 0 0 0 0 0 0 0 0 0 0 0 0 0 0 0 0 0 0 0 0 0 0 0 0 0 0 0 0 0 0 0 0 0 0 0 0 0 0 0
0 0 0 0 0 0 0 0 0 0 0 0 0 0 0 0 0 0 0 0 0 0 0 0 0 0 0 0 0 0 0 0 0 0 0 0 0 0 0 0 0 0 0 0
0 0 0 0 0 0 0 0 0 0 0 0 0 0 0 0 0 0 0 0 0 0 0 0 0 0 0 0 0 0 0 0 0 0 0 0 0 0 0 0 0 0 0 0
0 0 0 0 0 0 0 0 0 0 0 0 0 0 0 0 0 0 0 0 0 0 0 0 0 0 0 0 0 0 0 0 0 0 0 0 0 0 0 0 0 0 0 0
0 0 0 0 0 0 0 0 0 0 0 0 0 0 0 0 0 0 0 0 0 0 0 0 0 0 0 0 0 0 0 0 0 0 0 0 0 0 0 0 0 0 0 0
0 0 0 0 0 0 0 0 0 0 0 0 0 0 0 0 0 0 0 0 0 0 0 0 0 0 0 0 0 0 0 0 0 0 0 0 0 0 0 0 0 0 0 0
CIN
-0 -0 -0 -0 -0 -0 -0 -0 -0 -0 -0 -0 -0 -0 -0 -0 -0 -0 -0 -0 -0 -0 -0 -0 -0 -0 -0 -0 -0 -0 -0 -0 -0 -0 -0 -0 -0 -0 -0 -0 -0 -0 -0 -0
-0 -0 -0 -0 -0 -0 -0 -0 -0 -0 -0 -0 -0 -0 -0 -0 -0 -0 -0 -0 -0 -0 -0 -0 -0 -0 -0 -0 -0 -0 -0 -0 -0 -0 -0 -0 -0 -0 -0 -0 -0 -0 -0 -0
-0 -0 -0 -0 -0 -0 -0 -0 -0 -0 -0 -0 -0 -0 -0 -0 -0 -0 -0 -0 -0 -0 -0 -0 -0 -0 -0 -0 -0 -0 -0 -0 -0 -0 -0 -0 -0 -0 -0 -0 -0 -0 -0 -0
-0 -0 -0 -0 -0 -0 -0 -0 -0 -0 -0 -0 -0 -0 -0 -0 -0 -0 -0 -0 -0 -0 -0 -0 -0 -0 -0 -0 -0 -0 -0 -0 -0 -0 -0 -0 -0 -0 -0 -0 -0 -0 -0 -0
-0 -0 -0 -0 -0 -0 -0 -0 -0 -0 -0 -0 -0 -0 -0 -0 -0 -0 -0 -0 -0 -0 -0 -0 -0 -0 -0 -0 -0 -0 -0 -0 -0 -0 -0 -0 -0 -0 -0 -0 -0 -0 -0 -0
-0 -0 -0 -0 -0 -0 -0 -0 -0 -0 -0 -0 -0 -0 -0 -0 -0 -0 -0 -0 -0 -0 -0 -0 -0 -0 -0 -0 -0 -0 -0 -0 -0 -0 -0 -0 -0 -0 -0 -0 -0 -0 -0 -0
-0 -0 -0 -0 -0 -0 -0 -0 -0 -0 -0 -0 -0 -0 -0 -0 -0 -0 -0 -0 -0 -0 -0 -0 -0 -0 -0 -0 -0 -0 -0 -0 -0 -0 -0 -0 -0 -0 -0 -0 -0 -0 -0 -0
-0 -0 -0 -0 -0 -0 -0 -0 -0 -0 -0 -0 -0 -0 -0 -0 -0 -0 -0 -0 -0 -0 -0 -0 -0 -0 -0 -0 -0 -0 -0 -0 -0 -0 -0 -0 -0 -0 -0 -0 -0 -0 -0 -0
-0 -0 -0 -0 -0 -0 -0 -0 -0 -0 -0 -0 -0 -0 -0 -0 -0 -0 -0 -0 -0 -0 -0 -0 -0 -0 -0 -0 -0 -0 -0 -0 -0 -0 -0 -0 -0 -0 -0 -0 -0 -0 -0 -0
-0 -0 -0 -0 -0 -0 -0 -0 -0 -0 -0 -0 -0 -0 -0 -0 -0 -0 -0 -0 -0 -0 -0 -0 -0 -0 -0 -0 -0 -0 -0 -0 -0 -0 -0 -0 -0 -0 -0 -0 -0 -0 -0 -0
-0 -0 -0 -0 -0 -0 -0 -0 -0 -0 -0 -0 -0 -0 -0 -0 -0 -0 -0 -0 -0 -0 -0 -0 -0 -0 -0 -0 -0 -0 -0 -0 -0 -0 -0 -0 -0 -0 -0 -0 -0 -0 -0 -0
-0 -0 -0 -0 -0 -0 -0 -0 -0 -0 -0 -0 -0 -0 -0 -0 -0 -0 -0 -0 -0 -0 -0 -0 -0 -0 -0 -0 -0 -0 -0 -0 -0 -0 -0 -0 -0 -0 -0 -0 -0 -0 -0 -0
-0 -0 -0 -0 -0 -0 -0 -0 -0 -0 -0 -0 -0 -0 -0 -0 -0 -0 -0 -0 -0 -0 -0 -0 -0 -0 -0 -0 -0 -0 -0 -0 -0 -0 -0 -0 -0 -0 -0 -0 -0 -0 -0 -0
-0 -0 -0 -0 -0 -0 -0 -0 -0 -0 -0 -0 -0 -0 -0 -0 -0 -0 -0 -0 -0 -0 -0 -0 -0 -0 -0 -0 -0 -0 -0 -0 -0 -0 -0 -0 -0 -0 -0 -0 -0 -0 -0 -0
-0 -0 -0 -0 -0 -0 -0 -0 -0 -0 -0 -0 -0 -0 -0 -0 -0 -0 -0 -0 -0 -0 -0 -0 -0 -0 -0 -0 -0 -0 -0 -0 -0 -0 -0 -0 -0 -0 -0 -0 -0 -0 -0 -0
-0 -0 -0 -0 -0 -0 -0 -0 -0 -0 -0 -0 -0 -0 -0 -0 -0 -0 -0 -0 -0 -0 -0 -0 -0 -0 -0 -0 -0 -0 -0 -0 -0 -0 -0 -0 -0 -0 -0 -0 -0 -0 -0 -0
-0 -0 -0 -0 -0 -0 -0 -0 -0 -0 -0 -0 -0 -0 -0 -0 -0 -0 -0 -0 -0 -0 -0 -0 -0 -0 -0 -0 -0 -0 -0 -0 -0 -0 -0 -0 -0 -0 -0 -0 -0 -0 -0 -0
-0 -0 -0 -0 -0 -0 -0 -0 -0 -0 -0 -0 -0 -0 -0 -0 -0 -0 -0 -0 -0 -0 -0 -0 -0 -0 -0 -0 -0 -0 -0 -0 -0 -0 -0 -0 -0 -0 -0 -0 -0 -0 -0 -0
-0 -0 -0 -0 -0 -0 -0 -0 -0 -0 -0 -0 -0 -0 -0 -0 -0 -0 -0 -0 -0 -0 -0 -0 -0 -0 -0 -0 -0 -0 -0 -0 -0 -0 -0 -0 -0 -0 -0 -0 -0 -0 -0 -0
-0 -0 -0 -0 -0 -0 -0 -0 -0 -0 -0 -0 -0 -0 -0 -0 -0 -0 -0 -0 -0 -0 -0 -0 -0 -0 -0 -0 -0 -0 -0 -0 -0 -0 -0 -0 -0 -0 -0 -0 -0 -0 -0 -0
-0 -0 -0 -0 -0 -0 -0 -0 -0 -0 -0 -0 -0 -0 -0 -0 -0 -0 -0 -0 -0 -0 -0 -0 -0 -0 -0 -0 -0 -0 -0 -0 -0 -0 -0 -0 -0 -0 -0 -0 -0 -0 -0 -0
-0 -0 -0 -0 -0 -0 -0 -0 -0 -0 -0 -0 -0 -0 -0 -0 -0 -0 -0 -0 -0 -0 -0 -0 -0 -0 -0 -0 -0 -0 -0 -0 -0 -0 -0 -0 -0 -0 -0 -0 -0 -0 -0 -0
-0 -0 -0 -0 -0 -0 -0 -0 -0 -0 -0 -0 -0 -0 -0 -0 -0 -0 -0 -0 -0 -0 -0 -0 -0 -0 -0 -0 -0 -0 -0 -0 -0 -0 -0 -0 -0 -0 -0 -0 -0 -0 -0 -0
-0 -0 -0 -0 -0 -0 -0 -0 -0 -0 -0 -0 -0 -0 -0 -0 -0 -0 -0 -0 -0 -0 -0 -0 -0 -0 -0 -0 -0 -0 -0 -0 -0 -0 -0 -0 -0 -0 -0 -0 -0 -0 -0 -0
-0 -0 -0 -0 -0 -0 -0 -0 -0 -0 -0 -0 -0 -0 -0 -0 -0 -0 -0 -0 -0 -0 -0 -0 -0 -0 -0 -0 -0 -0 -0 -0 -0 -0 -0 -0 -0 -0 -0 -0 -0 -0 -0 -0
-0 -0 -0 -0 -0 -0 -0 -0 -0 -0 -0 -0 -0 -0 -0 -0 -0 -0 -0 -0 -0 -0 -0 -0 -0 -0 -0 -0 -0 -0 -0 -0 -0 -0 -0 -0 -0 -0 -0 -0 -0 -0 -0 -0
-0 -0 -0 -0 -0 -0 -0 -0 -0 -0 -0 -0 -0 -0 -0 -0 -0 -0 -0 -0 -0 -0 -0 -0 -0 -0 -0 -0 -0 -0 -0 -0 -0 -0 -0 -0 -0 -0 -0 -0 -0 -0 -0 -0
Wind_Speed
13 7 7 8 7 5 4 5 9 10 12 9 12 14 16 18 20 21 22 23 23 24 23 22 23 23 23 23 20 20 21 20 18 18 17 15 14 14 14 13 13 13 13 13
19 12 10 8 3 2 2 3 4 7 7 6 12 14 15 16 17 18 20 20 21 21 21 21 22 22 22 21 20 19 19 18 16 16 15 14 15 15 15 14 14 14 14 14
17 19 19 19 7 5 5 6 5 3 6 11 11 11 12 14 15 16 17 18 19 19 20 20 19 19 19 18 18 17 17 16 16 15 15 15 16 15 15 15 14 15 15 14
17 19 21 16 15 12 6 4 4 6 7 9 8 9 11 13 13 14 16 16 16 16 16 17 17 16 16 16 16 15 15 15 15 15 16 16 16 16 15 15 15 15 15 14
18 16 19 17 13 12 11 10 5 5 6 6 7 8 6 11 12 13 14 15 14 14 14 13 14 14 14 14 14 14 14 15 15 15 15 15 15 16 15 15 16 16 16 16
15 20 22 16 12 13 16 15 7 8 6 5 6 4 5 10 10 11 13 13 13 12 11 11 11 12 12 11 11 12 13 13 14 14 15 15 15 16 16 16 17 16 17 17
19 21 23 11 8 12 16 17 12 8 8 7 4 4 7 8 8 9 10 11 11 11 10 10 9 8 8 9 9 10 12 13 14 14 15 15 16 16 16 17 17 17 18 18
19 22 27 6 6 11 15 12 10 10 6 6 4 4 5 5 7 8 8 9 10 10 9 9 7 6 5 6 7 9 10 11 13 14 14 15 16 16 17 16 17 18 18 19
15 16 15 2 10 5 9 9 8 8 6 5 5 4 4 4 6 7 7 7 8 9 8 9 7 5 3 4 5 7 8 10 11 13 14 14 15 16 17 17 18 19 19 20
19 20 15 6 11 6 7 9 5 5 5 4 3 3 2 3 3 6 6 6 6 7 7 8 8 5 2 3 3 4 6 8 10 12 13 14 15 16 17 18 19 19 20 21
29 24 14 14 10 7 9 11 7 4 3 2 2 0 0 3 4 5 6 6 7 7 7 8 9 6 4 3 1 3 4 6 8 10 11 13 14 15 16 18 18 19 20 21
28 21 20 18 11 9 8 8 8 5 4 3 2 2 3 4 5 6 6 7 7 7 7 7 8 6 5 4 2 1 3 4 6 9 10 11 12 15 17 17 18 18 19 21
32 23 17 19 11 11 11 10 9 8 6 5 5 5 4 5 6 7 7 8 9 10 8 7 7 6 6 5 3 2 2 3 5 8 8 10 11 12 14 16 17 18 19 20
29 24 25 18 19 14 12 11 11 11 9 8 7 7 7 7 6 8 9 10 9 9 8 8 8 8 8 7 4 3 2 2 4 6 7 9 11 12 13 15 16 17 16 19
39 28 27 21 18 16 16 16 15 14 11 9 9 8 7 7 8 8 8 8 8 8 8 8 9 9 8 7 5 4 3 4 4 6 7 9 11 12 14 14 16 17 17 19
39 40 32 19 17 14 15 16 17 17 14 12 10 10 9 9 9 9 9 8 8 10 10 10 10 9 9 8 5 4 3 2 4 5 7 9 11 13 14 14 15 16 18 18
45 43 22 21 21 20 18 20 21 19 17 14 12 11 12 12 12 12 10 9 9 8 9 9 9 8 9 8 7 4 2 3 3 5 7 8 10 12 14 15 15 16 17 17
41 32 27 22 21 20 21 20 18 17 16 15 13 12 12 11 12 12 11 10 9 8 7 7 7 8 9 8 7 5 3 4 4 5 7 7 9 12 14 15 16 16 15 17
41 31 30 24 24 24 23 20 18 17 15 14 13 14 13 13 12 12 10 9 9 9 8 7 8 9 9 9 8 5 3 3 4 5 6 7 10 12 14 15 15 15 15 17
38 24 24 25 26 25 21 20 17 14 13 13 13 13 13 12 11 10 9 10 10 9 6 7 8 9 9 10 8 4 3 2 3 4 5 7 9 11 13 14 14 15 15 16
19 18 24 26 26 21 16 15 14 12 10 9 11 10 10 9 8 8 9 10 8 6 6 9 8 8 9 10 6 4 3 2 1 2 4 6 8 11 12 13 14 15 16 15
12 15 19 18 16 13 13 11 9 7 6 6 6 5 5 6 5 6 7 8 6 6 6 7 8 10 10 9 5 4 2 1 1 2 4 6 8 11 12 12 14 16 16 16
15 16 15 12 10 10 8 4 5 2 2 4 3 1 3 2 2 4 6 6 4 5 6 7 8 11 12 6 5 4 3 2 3 3 4 6 9 11 11 12 14 15 15 16
16 13 9 10 6 7 11 2 2 1 3 3 3 3 3 3 4 5 3 1 3 5 5 6 10 13 9 6 6 4 3 3 3 4 5 8 9 11 11 12 13 14 14 15
10 7 7 6 9 13 7 1 1 4 4 5 6 7 7 7 6 6 5 3 3 2 4 8 11 11 8 7 6 4 4 5 5 5 6 8 9 10 11 12 13 13 14 14
9 9 8 10 11 7 3 2 6 7 8 9 10 11 13 13 13 13 12 10 8 8 8 10 10 7 7 6 6 7 7 6 5 5 7 8 9 10 11 12 12 13 14 14
9 8 8 9 9 5 5 8 9 10 12 14 15 16 17 17 18 19 20 17 16 13 13 14 10 7 7 7 8 8 6 5 6 8 8 9 10 11 12 12 11 13 14 14
Wind_Direction
360 43 47 31 22 43 48 80 46 79 70 112 123 108 98 99 100 98 97 94 94 90 80 71 75 75 77 75 66 67 68 64 59 53 49 39 30 25 18 7 2 2 4 357
342 27 32 28 62 101 132 136 168 181 191 135 113 89 97 105 105 102 102 100 98 86 84 82 81 80 76 74 72 68 64 58 49 45 39 32 25 20 14 7 0 355 354 352
333 349 359 345 42 89 65 49 141 131 124 85 94 93 108 118 114 113 109 105 101 98 94 91 87 82 76 74 69 61 58 55 50 41 29 21 18 16 10 6 3 359 354 352
321 333 329 3 12 27 60 89 112 55 101 116 108 104 111 121 121 121 120 116 109 104 99 96 91 85 78 74 68 64 59 54 47 39 33 25 17 11 8 4 2 359 353 356
308 321 333 344 358 7 18 21 99 113 109 106 85 63 83 133 131 132 132 128 119 111 104 98 94 88 80 73 68 63 56 50 45 41 35 26 20 17 13 8 357 353 353 356
304 305 313 343 7 9 356 1 55 125 124 101 84 94 112 145 138 135 136 134 128 119 108 104 98 91 81 73 65 57 54 51 50 47 37 28 24 15 9 4 356 352 352 353
287 296 308 323 9 358 345 350 26 98 111 110 130 143 26 137 137 141 139 141 137 132 129 122 109 96 83 75 66 59 49 42 38 38 38 29 21 14 9 358 353 353 353 354
280 289 295 337 360 337 339 354 12 19 85 119 105 56 24 146 153 147 148 145 147 145 143 138 127 114 92 76 64 55 44 36 33 31 33 32 22 17 10 4 359 356 356 356
268 287 315 184 327 326 347 352 10 23 52 95 80 61 41 92 143 157 159 158 157 156 152 152 147 139 114 88 64 41 34 30 25 24 25 30 18 16 7 360 357 354 354 352
277 282 291 247 305 315 326 331 4 18 32 76 77 62 86 135 159 164 170 176 172 166 168 168 162 160 158 126 71 34 25 20 16 16 16 20 15 9 7 359 353 351 350 349
271 285 294 286 277 280 302 314 324 343 354 11 45 90 219 172 196 202 188 190 186 184 184 181 171 173 178 163 102 5 13 16 8 9 11 13 13 10 7 0 355 352 350 348
267 276 277 289 261 262 274 285 295 294 315 300 288 242 194 196 198 214 213 203 204 209 205 200 190 197 200 197 214 316 348 3 4 1 7 8 12 6 6 7 2 360 358 355
268 277 275 285 275 256 263 268 272 269 259 282 283 260 244 224 226 223 235 228 222 217 221 213 207 211 214 209 224 253 308 349 357 355 1 0 5 10 6 2 0 360 359 359
261 273 273 274 287 278 275 274 281 279 261 266 257 250 246 241 263 233 231 226 229 235 235 225 211 204 202 200 218 243 288 324 344 350 355 355 356 5 7 4 358 355 0 356
254 262 272 278 283 279 283 283 282 281 273 262 266 242 241 257 262 244 251 247 243 243 238 220 209 209 203 198 207 219 264 310 330 342 351 352 350 356 1 4 357 357 360 358
254 258 265 250 244 257 266 267 271 273 264 261 261 252 252 256 271 278 273 258 243 241 224 216 215 214 201 199 209 226 255 292 322 337 344 347 344 345 352 0 -0 359 357 358
251 233 239 248 245 244 249 267 268 265 250 254 256 262 275 279 281 281 271 256 250 246 225 220 222 213 204 205 200 213 255 304 316 330 337 345 344 342 346 354 359 358 360 4
255 256 262 246 240 258 272 278 277 266 249 242 257 267 268 267 265 265 265 270 272 266 242 235 219 206 202 198 192 200 260 304 313 321 336 348 345 343 345 350 354 358 2 3
253 219 226 246 259 270 276 278 275 272 262 253 254 247 248 246 256 263 264 258 252 252 250 226 201 194 194 186 183 202 261 291 313 326 341 352 345 346 347 349 353 358 4 2
219 235 263 264 267 271 269 276 274 270 257 253 243 236 238 259 263 258 252 249 243 253 235 213 194 193 188 178 179 219 243 262 305 332 350 348 348 350 350 352 358 357 1 3
224 251 265 266 268 266 259 262 266 261 258 239 219 227 233 248 253 250 253 267 262 243 221 193 198 197 180 175 192 224 210 232 307 359 359 358 355 354 352 355 358 358 359 3
260 263 269 266 261 253 260 257 233 233 220 232 238 238 265 268 255 247 245 246 252 220 215 214 205 187 182 178 193 181 173 145 65 44 20 8 1 354 356 1 359 358 3 5
269 271 274 268 252 255 266 249 168 214 225 170 180 256 294 282 225 234 271 289 237 216 218 212 197 178 171 195 184 170 146 119 93 64 25 8 0 1 6 3 0 6 7 8
269 269 265 262 240 240 258 225 290 336 106 80 18 17 37 52 11 347 340 201 194 196 208 194 176 169 180 181 168 154 137 113 88 55 21 11 9 8 10 10 13 12 16 17
260 250 236 221 242 253 256 238 2 71 63 48 53 59 64 68 71 66 69 84 140 197 200 167 159 160 169 163 157 146 126 111 93 53 28 22 17 21 23 21 20 27 25 22
241 238 232 239 245 242 197 135 107 96 91 81 73 73 73 73 75 82 91 101 100 114 130 145 152 168 168 157 142 128 118 103 74 49 36 34 37 32 28 31 43 38 30 28
240 232 227 234 240 220 136 117 112 106 102 99 94 89 84 82 88 94 106 108 112 114 122 126 134 146 145 136 126 119 107 87 74 69 64 54 42 40 45 51 54 43 37 33